Overview Statistics Trail Chart Weather Telemetry Raw packets
 

This is the latest recevied weather packets stored in our database for station/object KGRR-WX. If no packets are shown the sender has not sent any weather packets the latest 10 day(s).

<< 1 2 3 4 5 6 >>
Time Temp. Humidity Pressure Rain* Wind** Luminosity Snow
1788594306 20.56° C 94% 985.7 hPa 0 mm - - -
1788593408 20.56° C 94% 985.7 hPa 0 mm - - -
1788592508 21.11° C 94% 985.8 hPa 0 mm - - -
1788591608 21.11° C 94% 985.8 hPa 0 mm - - -
1788590705 20.56° C 94% 983.8 hPa 0 mm - - -
1788589808 21.11° C 91% 985.2 hPa 0 mm - - -
1788588907 20° C 91% 985.1 hPa 0 mm - - -
1788588019 20° C 91% 985.1 hPa 0 mm - - -
1788587107 20° C 90% 985.3 hPa 0 mm - - -
1788586207 20.56° C 90% 985.4 hPa 0 mm - - -
1788585305 20.56° C 90% 985.3 hPa 0 mm - - -
1788584408 20.56° C 90% 985.3 hPa 0 mm - - -
1788583507 21.11° C 90% 985.7 hPa 0 mm - - -
1788582607 21.11° C 90% 985.6 hPa 0 mm - - -
1788581706 20° C 90% 985.5 hPa 0 mm - - -
1788580806 20° C 90% 985.5 hPa 0 mm - - -
1788579907 20.56° C 88% 985.6 hPa 0 mm - - -
1788579006 20.56° C 84% 985.7 hPa 0 mm - - -
1788578106 20° C 84% 985.6 hPa 0 mm - - -
1788577206 20.56° C 84% 985.6 hPa 0 mm - - -
1788576306 20.56° C 85% 985.6 hPa 0 mm - - -
1788575406 20.56° C 87% 985.1 hPa 0 mm - - -
1788574506 20.56° C 87% 985.1 hPa 0 mm - - -
1788573607 21.11° C 87% 985.1 hPa 0 mm - - -
1788572706 21.11° C 86% 984.6 hPa 0 mm - - -

* Rain latest hour (hover to see other rain measurements)
** Current wind speed in m/s (hover to see current wind gust speed)